Location: Sand Canyon
(38.6177°N, 119.2463°W)
Time: 16:26:27
(UTC+00:00)

ADEOS II - Pass Details

Date: 05 July 2020
Orbit: 799 x 801 km, 98.5° (Epoch: 12 August)

Event Time Altitude Azimuth Distance (km) Brightness Sun altitude
Rises 12:04:45 0° 349° (NNW) 3,318 5.6 -6.4°
Reaches altitude 10° 12:09:54 10° 305° (NW) 2,380 4.4 -5.6°
Maximum altitude 12:10:15 10° 301° (WNW) 2,374 4.3 -5.5°
Drops below altitude 10° 12:10:37 10° 297° (WNW) 2,379 4.3 -5.4°
Enters shadow 12:14:42 - 260° (W) 3,015 4.5 -4.8°
